Regional Weather Roundup
Issued by NWS

Current Version | Previous Version | Text Only | Print | Product List | Glossary On
Versions: 1 2 3 4 5 6 7 8 9 10 11 12 13 14 15 16 17 18 19 20 21 22 23 24 25 26 27 28 29 30 31 32 33 34 35 36 37 38 39 40 41 42 43 44 45 46 47 48 49 50
156
ASUS43 KFSD 191710
RWRSD

WEATHER ROUNDUP FOR SOUTH DAKOTA
NATIONAL WEATHER SERVICE SIOUX FALLS SD
1200 PM CDT MON APR 19 2021

NOTE: "FAIR" INDICATES FEW OR NO CLOUDS BELOW 12,000 FEET WITH NO
SIGNIFICANT WEATHER AND/OR OBSTRUCTIONS TO VISIBILITY.


SDZ001>005-009-010-012>017-191800-
NORTHWEST AND NORTH CENTRAL SOUTH DAKOTA

CITY           SKY/WX    TMP DP  RH WIND       PRES   REMARKS
BUFFALO          N/A     32  14  47 N18G31    30.19S WCI  20
FAITH            N/A     31  16  54 N15       30.20R WCI  20
MOBRIDGE       CLOUDY    39  15  37 N17G26    30.18F
$$

SDZ012>016-024>037-041>051-057-063-072>074-191800-
SOUTHWEST AND SOUTH CENTRAL SOUTH DAKOTA

CITY           SKY/WX    TMP DP  RH WIND       PRES   REMARKS
RAPID CTY ARPT PTSUNNY   28  21  75 N10       30.21F WCI  19
PIERRE         CLOUDY    35  14  42 N21G30    30.21F WCI  24
CUSTER         LGT SNOW  21  15  78 N3        30.09S
ELLSWORTH AFB  FLURRIES  28  22  79 NW12      30.20  WCI  18
PHILIP         CLOUDY    31  22  69 N9        30.23F WCI  23
PINE RIDGE     FLURRIES  29  21  72 N13       30.21R WCI  19
SPEARFISH      CLOUDY    25  21  86 NW10G17   30.21S WCI  15
WINNER         CLOUDY    33  16  49 N21G26    30.20F WCI  21
$$

SDZ004>011-016>023-039-040-191800-
NORTHEAST SOUTH DAKOTA

CITY           SKY/WX    TMP DP  RH WIND       PRES   REMARKS
ABERDEEN       MOSUNNY   37  12  35 N23G30    30.18F
WATERTOWN      CLOUDY    32  15  49 NW22G33   30.11F WCI  19
BROOKINGS      CLOUDY    31  16  54 N23G32    30.11F WCI  18
SISSETON         N/A     38  12  34 N24G40    30.13F
$$

SDZ017-020-022-023-036>040-048>070-191800-
SOUTHEAST SOUTH DAKOTA

CITY           SKY/WX    TMP DP  RH WIND       PRES   REMARKS
SIOUX FALLS    PTSUNNY   36  16  44 NW17G33   30.12F
HURON          PTSUNNY   36  14  40 N21G30    30.19S
CHAMBERLAIN    CLOUDY    34  15  44 N15G24    30.20F WCI  24
MITCHELL       PTSUNNY   37  14  38 NW21G31   30.19F
YANKTON        PTSUNNY   34  15  46 N21G30    30.17S WCI  22
$$

ABBREVIATIONS USED IN REMARKS
   TC - TEMPERATURE IN CELSIUS
  WCI - WIND CHILL INDEX
   HX - HEAT INDEX
  VSB - VISIBILITY





USA.gov is the U.S. government's official web portal to all federal, state and local government web resources and services.